Printer-friendly version

IAU Minor Planet Center

Minor Planet Center

MPEC 2000-W16: 2000 WG6

The following Minor Planet Electronic Circular may be linked-to from your own Web pages, but must not otherwise be redistributed electronically.


Read MPEC 2000-W15 Read MPEC 2000-W17


M.P.E.C. 2000-W16                                Issued 2000 Nov. 21, 21:04 UT

     The Minor Planet Electronic Circulars contain information on unusual
         minor planets and routine data on comets.  They are published
   on behalf of Commission 20 of the International Astronomical Union by the
          Minor Planet Center, Smithsonian Astrophysical Observatory,
                          Cambridge, MA 02138, U.S.A.

             Prepared using the Tamkin Foundation Computer Network

                              MPC@CFA.HARVARD.EDU
          URL http://cfa-www.harvard.edu/iau/mpc.html  ISSN 1523-6714

                                   2000 WG6

Observations:
     K00W06G* C2000 11 18.14998 00 10 08.10 -14 09 18.2          16.9        704
     K00W06G  C2000 11 18.16502 00 10 10.31 -14 08 17.0          17.6        704
     K00W06G  C2000 11 18.18013 00 10 12.52 -14 07 15.1          18.4        704
     K00W06G  C2000 11 18.19716 00 10 15.01 -14 06 05.8          18.3        704
     K00W06G  C2000 11 19.19387 00 12 51.56 -12 58 24.1          17.5 R      853
     K00W06G  C2000 11 19.19434 00 12 51.65 -12 58 22.1          17.7 R      853
     K00W06G  C2000 11 19.19481 00 12 51.70 -12 58 20.2          17.5 R      853
     K00W06G  C2000 11 19.23201 00 12 57.10 -12 55 48.1          17.0        704
     K00W06G  C2000 11 19.24758 00 12 59.43 -12 54 44.3          17.0        704
     K00W06G  C2000 11 19.26317 00 13 01.77 -12 53 40.8          16.9        704
     K00W06G  C2000 11 19.27877 00 13 04.09 -12 52 36.4          17.8        704
     K00W06G  C2000 11 19.29445 00 13 06.41 -12 51 32.5          18.5        704
     K00W06G  C2000 11 19.71475 00 14 14.79 -12 23 04.4          16.5 R      046
     K00W06G  C2000 11 19.71601 00 14 15.08 -12 22 59.6                      046
     K00W06G  C2000 11 19.71935 00 14 15.57 -12 22 46.5                      046
     K00W06G  C2000 11 19.72036 00 14 15.73 -12 22 43.2          16.7 R      046
     K00W06G  C2000 11 19.72228 00 14 15.98 -12 22 34.0                      046
     K00W06G  C2000 11 19.72459 00 14 16.28 -12 22 24.6                      046
     K00W06G tC2000 11 20.04826 00 15 06.80 -11 59 53.5                      808
     K00W06G tC2000 11 20.05150 00 15 07.37 -11 59 39.9                      808
     K00W06G  C2000 11 20.06875 00 15 09.86 -11 58 28.6                      808
     K00W06G  C2000 11 20.08044 00 15 11.60 -11 57 41.5                      808
     K00W06G  C2000 11 20.13586 00 15 20.79 -11 54 24.2          17.7        704
     K00W06G  C2000 11 20.15056 00 15 22.99 -11 53 24.4          17.8        704
     K00W06G  C2000 11 20.16144 00 15 24.10 -11 52 41.1          16.2 R      850
     K00W06G  C2000 11 20.16538 00 15 25.20 -11 52 23.2          17.3        704
     K00W06G  C2000 11 20.18069 00 15 27.46 -11 51 21.6          16.8        704
     K00W06G  C2000 11 20.19597 00 15 29.72 -11 50 19.1          16.5        704
     K00W06G  C2000 11 20.19749 00 15 30.31 -11 50 13.3                      670
     K00W06G  C2000 11 20.20449 00 15 30.59 -11 49 43.7          15.2 R      850
     K00W06G  C2000 11 20.21039 00 15 31.44 -11 49 19.6          15.6 R      850
     K00W06G  C2000 11 20.23776 00 15 36.03 -11 47 27.5          18.3        919
     K00W06G  C2000 11 20.23934 00 15 36.40 -11 47 21.2          18.4        919
     K00W06G  C2000 11 20.24305 00 15 36.98 -11 47 05.6          18.6        919
     K00W06G  C2000 11 20.24649 00 15 37.47 -11 46 52.4          18.6        919
     K00W06G  C2000 11 20.63502 00 16 38.96 -11 20 03.2                      322
     K00W06G  C2000 11 20.64005 00 16 39.62 -11 19 40.0                      322
     K00W06G  C2000 11 20.65081 00 16 41.27 -11 18 55.1                      322
     K00W06G tC2000 11 21.04479 00 17 45.14 -10 52 11.7                      808
     K00W06G tC2000 11 21.05139 00 17 46.09 -10 51 46.2                      808
     K00W06G tC2000 11 21.05833 00 17 47.11 -10 51 17.3                      808
     K00W06G tC2000 11 21.06528 00 17 48.15 -10 50 48.8                      808
     K00W06G tC2000 11 21.08461 00 17 51.05 -10 49 29.9                      808
     K00W06G tC2000 11 21.09236 00 17 52.19 -10 48 58.0                      808
     K00W06G tC2000 11 21.09861 00 17 53.11 -10 48 33.0                      808

Observer details:
046 Klet.  Observers J. Ticha, M. Tichy.  0.57-m f/5.2 reflector + CCD.
322 Perth Observatory, Bickley-MCT.  Observer J. Biggs.  0.25-m f/4.5 reflector
    + CCD.
670 Camarillo.  Observer J. E. Rogers.  0.30-m f/6.7 Helin Telescope + CCD.
704 Lincoln Laboratory ETS, New Mexico.  Observers M. Blythe, F. Shelly,
    M. Bezpalko, M. Elowitz, R. Huber, L. Manguso.  Measurers J. Stuart,
    R. Sayer, J. B. Evans, H. Viggh.  1.0-m f/2.15 reflector + CCD.
808 El Leoncito.  Observer H. S. Lepez.  Measurers H. S. Lepez, C. E. Lopez.
    0.5-m f/7.5 double astrograph + CCD.
850 Cordell-Lorenz Observatory, Sewanee.  Observers D. T. Durig, R. F. Glass.
    Measurers D. T. Durig, N. K. Smith.  0.3-m f/5.75 Schmidt-Cassegrain + CCD.
853 Biosphere 2 Observatory.  Observer G. J. Garradd.  0.6-m f/8.1 reflector
    + CCD.
919 Desert Beaver Observatory.  Observer W. K. Yeung.  0.45-m reflector + CCD.

Orbital elements:
2000 WG6
Epoch 2000 Nov. 12.0 TT = JDT 2451860.5                 Williams
M   1.77573              (2000.0)            P               Q
n   0.26118593     Peri.  329.55965     +0.85316355     -0.48884456
a   2.4238339      Node    60.79786     +0.51070803     +0.71167362
e   0.5190133      Incl.   12.03793     +0.10625098     +0.50453113
P   3.77           H   17.6           G   0.15
From 45 observations 2000 Nov. 18-21.

Ephemeris:
2000 WG6                 a,e,i = 2.42, 0.52, 12                  q = 1.1658
Date    TT    R. A. (2000) Decl.     Delta      r     Elong.  Phase     V
2000 11 22    00 20.29   -09 47.7    0.321    1.182   120.1    46.3    17.3
2000 11 27    00 33.84   -04 13.4    0.333    1.192   120.8    45.3    17.3
2000 12 02    00 47.72   +01 06.5    0.350    1.205   121.2    44.4    17.4
2000 12 07    01 01.87   +06 04.8    0.372    1.221   121.4    43.5    17.6
2000 12 12    01 16.22   +10 36.7    0.398    1.239   121.3    42.8    17.7
2000 12 17    01 30.72   +14 39.9    0.427    1.258   120.9    42.1    17.9
2000 12 22    01 45.33   +18 14.3    0.461    1.280   120.3    41.6    18.1
2000 12 27    02 00.03   +21 21.3    0.499    1.303   119.5    41.1    18.3
2001 01 01    02 14.80   +24 03.0    0.540    1.328   118.4    40.6    18.5
2001 01 06    02 29.60   +26 21.8    0.585    1.355   117.2    40.2    18.7
2001 01 11    02 44.40   +28 20.3    0.633    1.383   115.9    39.8    18.9
2001 01 16    02 59.15   +30 00.7    0.684    1.411   114.4    39.4    19.1
2001 01 21    03 13.85   +31 25.2    0.737    1.441   112.9    39.0    19.3
2001 01 26    03 28.49   +32 35.8    0.794    1.471   111.2    38.6    19.5
2001 01 31    03 43.04   +33 34.2    0.853    1.503   109.4    38.2    19.7

2001 02 10    04 11.78   +34 59.9    0.979    1.567   105.7    37.3    20.0
2001 02 20    04 39.92   +35 51.7    1.114    1.632   101.7    36.4    20.4
2001 03 02    05 07.39   +36 16.3    1.257    1.699    97.5    35.3    20.7
2001 03 12    05 34.09   +36 19.1    1.407    1.766    93.1    34.2    21.0
2001 03 22    05 59.95   +36 03.6    1.563    1.833    88.6    32.9    21.3
2001 04 01    06 24.95   +35 33.0    1.723    1.900    84.0    31.5    21.5
2001 04 11    06 49.07   +34 49.7    1.887    1.966    79.3    30.1    21.7
2001 04 21    07 12.28   +33 55.6    2.052    2.031    74.6    28.5    22.0

Gareth V. Williams           (C) Copyright 2000 MPC           M.P.E.C. 2000-W16

Read MPEC 2000-W15 Read MPEC 2000-W17


Our Web policy. Index to the CBAT/MPC/ICQ pages.


Valid HTML 4.01!